Probability
0 0 0 0 0 0 0 0 0 0 0 0 0 0 0 0 0 0 0 0 0 0 0 0 0 0 0 0 0 0 0 0 0 0 0 0 0 0 0 0 0 0 0 0
0 0 0 0 0 0 0 0 0 0 0 0 0 0 0 0 0 0 0 0 0 0 0 0 0 0 0 0 0 0 0 0 0 0 0 0 0 0 0 0 0 0 0 0
0 0 0 0 0 0 0 0 0 0 0 0 0 0 0 0 0 0 0 0 0 0 0 0 0 0 0 0 0 0 0 0 0 0 0 0 0 0 0 0 0 0 0 0
0 0 0 0 0 0 0 0 0 0 0 0 0 0 0 0 0 0 0 0 0 0 0 0 0 0 0 0 0 0 0 0 0 0 0 0 0 0 0 0 0 0 0 0
0 0 0 0 0 0 0 0 0 0 0 0 0 0 0 0 0 0 0 0 0 0 0 0 0 0 0 0 0 0 0 0 0 0 0 0 0 0 0 0 0 0 0 0
0 0 0 0 0 0 0 0 0 0 0 0 0 0 0 0 0 0 0 0 0 0 0 0 0 0 0 0 0 0 0 0 0 0 0 0 0 0 0 0 0 0 0 0
0 0 0 0 0 0 0 0 0 0 0 0 0 0 0 0 0 0 0 0 0 0 0 0 0 0 0 0 0 0 0 0 0 0 0 0 0 0 0 0 0 0 0 0
0 0 0 0 0 0 0 0 0 0 0 0 0 0 0 0 0 0 0 0 0 0 0 0 0 0 0 0 0 0 0 0 0 0 0 0 0 0 0 0 0 0 0 0
0 0 0 0 0 0 0 0 0 0 0 0 0 0 0 0 0 0 0 0 0 0 0 0 0 0 0 0 0 0 0 0 0 0 0 0 0 0 0 0 0 0 0 0
0 0 0 0 0 0 0 0 0 0 0 0 0 0 0 0 0 0 0 0 0 0 0 0 0 0 0 0 0 0 0 0 0 0 0 0 0 0 0 0 0 0 0 0
0 0 0 0 0 0 0 0 0 0 0 0 0 0 0 0 0 0 0 0 0 0 0 0 0 0 0 0 0 0 0 0 0 0 0 0 0 0 0 0 0 0 0 0
0 0 0 0 0 0 0 0 0 0 0 0 0 0 0 0 0 0 0 0 0 0 0 0 0 0 0 0 0 0 0 0 0 0 0 0 0 0 0 0 0 0 0 0
0 0 0 0 0 0 0 0 0 0 0 0 0 0 0 0 0 0 0 0 0 0 0 0 0 0 0 0 0 0 0 0 0 0 0 0 0 0 0 0 0 0 0 0
0 0 0 0 0 0 0 0 0 0 0 0 0 0 0 0 0 0 0 0 0 0 0 0 0 0 0 0 0 0 0 0 0 0 0 0 0 0 0 0 0 0 0 0
0 0 0 0 0 0 0 0 0 0 0 0 0 0 0 0 0 0 0 0 0 0 0 0 0 0 0 0 0 0 0 0 0 0 0 0 0 0 0 0 0 0 0 0
0 0 0 0 0 0 0 0 0 0 0 0 0 0 0 0 0 0 0 0 0 0 0 0 0 0 0 0 0 0 0 0 0 0 0 0 0 0 0 0 0 0 0 0
0 0 0 0 0 0 0 0 0 0 0 0 0 0 0 0 0 0 0 0 0 0 0 0 0 0 0 0 0 0 0 0 0 0 0 0 0 0 0 0 0 0 0 0
0 0 0 0 0 0 0 0 0 0 0 0 0 0 0 0 0 0 0 0 0 0 0 0 0 0 0 0 0 0 0 0 0 0 0 0 0 0 0 0 0 0 0 0
0 0 0 0 0 0 0 0 0 0 0 0 0 0 0 0 0 0 0 0 0 0 0 0 0 0 0 0 0 0 0 0 0 0 0 0 0 0 0 0 0 0 0 0
0 0 0 0 0 0 0 0 0 0 0 0 0 0 0 0 0 0 0 0 0 0 0 0 0 0 0 0 0 0 0 0 0 0 0 0 0 0 0 0 0 0 0 0
0 0 0 0 0 0 0 0 0 0 0 0 0 0 0 0 0 0 0 0 0 0 0 0 0 0 0 0 0 0 0 0 0 0 0 0 0 0 0 0 0 0 0 0
0 0 0 0 0 0 0 0 0 0 0 0 0 0 0 0 0 0 0 0 0 0 0 0 0 0 0 0 0 0 0 0 0 0 0 0 0 0 0 0 0 0 0 0
0 0 0 0 0 0 0 0 0 0 0 0 0 0 0 0 0 0 0 0 0 0 0 0 0 0 0 0 0 0 0 0 0 0 0 0 0 0 0 0 0 0 0 0
0 0 0 0 0 0 0 0 0 0 0 0 0 0 0 0 0 0 0 0 0 0 0 0 0 0 0 0 0 0 0 0 0 0 0 0 0 0 0 0 0 0 0 0
0 0 0 0 0 0 0 0 0 0 0 0 0 0 0 0 0 0 0 0 0 0 0 0 0 0 0 0 0 0 0 0 0 0 0 0 0 0 0 0 0 0 0 0
0 0 0 0 0 0 0 0 0 0 0 0 0 0 0 0 0 0 0 0 0 0 0 0 0 0 0 0 0 0 0 0 0 0 0 0 0 0 0 0 0 0 0 0
0 0 0 0 0 0 0 0 0 0 0 0 0 0 0 0 0 0 0 0 0 0 0 0 0 0 0 0 0 0 0 0 0 0 0 0 0 0 0 0 0 0 0 0
Wind_Speed
9 7 5 8 9 8 11 11 11 12 13 14 9 7 7 5 5 4 4 4 4 4 3 2 2 2 2 1 1 1 1 1 2 2 1 1 2 2 1 1 2 2 2 2
7 6 6 10 12 12 14 12 14 14 17 12 8 5 5 6 5 6 6 6 5 4 4 3 3 3 2 2 2 1 1 2 2 1 1 1 2 2 2 2 2 2 2 2
7 5 5 11 12 11 9 9 9 14 15 7 6 7 7 6 6 7 7 6 5 5 5 4 4 3 3 3 2 1 2 2 1 1 2 2 2 2 2 2 2 2 3 3
4 1 10 10 3 6 8 9 9 9 9 6 7 7 6 5 5 6 6 6 5 4 4 3 3 2 2 1 2 2 2 2 2 2 2 2 2 2 3 2 2 3 3 3
3 6 12 9 4 4 6 9 7 10 11 8 5 4 5 3 3 5 5 4 4 3 2 1 2 2 1 2 2 2 3 3 2 2 2 2 2 3 3 2 3 3 3 3
4 6 9 8 2 2 2 7 4 5 8 6 1 3 6 2 2 3 3 2 2 1 0 1 1 1 2 2 2 3 3 3 3 3 3 3 3 3 2 2 3 3 3 3
8 9 11 6 2 3 4 7 2 4 5 4 5 7 4 3 3 2 2 2 1 0 1 1 1 1 2 2 4 4 2 2 2 2 2 3 3 2 2 3 3 3 4 4
6 8 12 3 5 7 8 2 2 3 4 5 6 5 4 3 3 2 2 1 1 0 1 2 1 1 2 3 3 2 1 1 2 2 2 2 2 2 2 2 3 3 4 4
10 10 6 6 7 5 2 3 4 4 4 4 5 5 4 4 3 2 2 2 1 1 1 2 1 1 2 3 2 1 1 1 1 2 2 2 2 2 2 2 3 3 4 4
7 10 7 7 6 4 4 5 5 5 5 4 5 5 4 4 3 2 2 2 1 1 1 2 2 2 2 2 1 1 1 2 2 2 2 2 2 2 3 3 3 4 4 4
8 8 5 6 6 7 5 4 4 4 4 4 4 5 4 4 3 2 2 1 1 1 2 3 2 2 2 2 1 1 2 2 2 2 2 2 3 3 4 4 5 5 4 4
9 6 5 6 3 3 4 5 4 4 3 3 3 4 3 3 2 1 1 1 1 1 2 3 2 3 3 2 1 1 2 2 2 2 2 2 3 3 6 7 9 10 9 8
7 4 4 4 3 2 3 3 3 3 3 3 2 2 2 2 1 1 1 2 2 2 3 3 3 3 3 2 2 2 3 3 2 2 2 3 3 3 4 5 7 9 10 10
4 2 3 3 3 2 2 1 1 1 1 1 1 1 1 1 1 1 2 2 2 2 2 2 3 4 3 2 2 3 3 4 3 2 2 3 3 3 3 4 4 4 6 9
4 4 5 3 2 2 1 0 0 2 1 1 1 1 1 1 2 3 2 2 1 2 2 3 4 5 3 2 3 3 3 3 3 2 2 3 3 3 3 4 4 4 4 5
3 2 2 3 4 3 2 1 2 3 2 2 1 2 2 2 2 2 2 1 1 3 4 4 5 5 3 3 3 2 3 5 4 2 2 2 3 3 3 4 4 4 4 4
3 4 4 4 5 4 4 4 4 4 3 3 3 2 1 1 2 2 3 2 3 4 4 5 5 4 3 3 3 3 3 3 5 3 2 3 3 3 3 3 4 4 4 5
6 5 5 5 4 4 4 3 3 4 4 3 2 1 1 2 3 4 3 3 3 3 4 4 4 3 3 3 3 2 2 2 2 3 3 3 3 3 3 3 4 4 4 5
3 4 3 3 3 3 3 3 3 3 2 2 2 2 3 3 3 3 3 2 3 4 5 4 6 3 3 4 3 2 2 2 3 3 3 5 4 3 3 3 4 4 4 4
2 2 2 2 1 2 3 3 2 2 2 2 2 2 3 3 3 3 2 3 4 4 4 4 4 3 4 4 4 2 2 3 3 3 3 3 3 3 3 4 4 4 4 4
2 2 2 2 2 2 2 2 2 3 2 2 3 3 4 4 3 2 2 4 4 3 4 6 3 3 3 3 4 2 2 3 3 3 3 3 4 4 4 4 4 4 4 4
2 2 2 2 2 2 2 2 2 2 2 2 3 3 3 3 3 3 4 4 4 6 3 3 3 5 4 3 2 2 2 3 3 3 3 4 4 4 4 4 5 5 4 4
2 2 2 2 2 2 2 2 2 2 3 3 3 4 4 4 3 3 4 3 3 6 3 3 5 7 5 2 1 2 3 3 3 3 4 4 4 4 5 5 5 5 4 4
1 2 2 1 1 1 2 3 2 2 3 3 4 4 4 3 3 3 4 6 7 7 3 6 8 7 5 1 2 2 3 3 4 4 4 4 4 4 5 5 5 5 5 6
2 2 2 2 2 3 3 2 2 2 2 2 3 3 3 3 4 3 3 4 7 6 4 6 8 7 3 2 2 3 3 4 4 4 4 4 4 4 5 5 5 5 5 5
2 2 2 3 3 2 2 2 2 2 2 3 3 3 3 3 3 3 3 4 5 6 4 3 3 4 3 3 3 4 4 4 5 4 4 4 5 5 5 5 6 5 5 6
1 1 1 2 2 2 2 2 3 3 3 3 4 3 3 3 3 3 3 3 3 3 3 3 3 3 3 3 3 4 3 4 4 4 4 4 5 5 5 6 5 5 5 6
Wind_Direction
252 255 238 241 241 221 218 221 228 247 250 262 265 259 260 258 259 256 259 257 247 244 244 242 253 262 262 270 282 274 244 257 271 283 288 290 286 278 275 270 268 272 279 278
267 253 250 262 253 236 234 235 241 257 265 262 268 268 267 264 258 255 255 255 251 245 242 238 237 242 251 260 263 254 244 263 283 290 292 287 284 286 286 283 282 279 277 272
265 282 305 264 240 218 220 221 215 238 250 267 271 263 258 258 252 251 257 258 254 246 238 236 235 232 231 240 245 234 242 258 270 275 280 284 285 287 278 276 282 275 271 264
261 302 247 247 222 206 221 239 224 239 260 262 257 273 274 258 249 263 267 262 259 251 244 242 239 235 230 225 224 228 242 253 257 260 268 278 280 278 278 277 271 271 273 267
221 249 267 278 242 186 208 260 229 236 260 273 293 314 286 255 248 263 276 273 266 260 254 247 240 228 206 224 229 229 238 246 249 246 251 256 262 268 277 278 276 272 273 272
216 237 250 254 232 183 145 266 245 219 250 269 323 286 276 296 308 301 308 303 294 308 329 263 266 218 189 227 237 243 246 249 247 239 238 247 255 266 272 269 268 273 283 281
226 241 259 262 220 124 189 250 258 214 235 235 220 240 275 307 305 302 315 323 321 316 306 284 276 204 214 237 247 254 256 258 255 250 246 250 259 269 271 270 275 272 276 281
201 226 251 210 143 189 224 256 247 246 242 243 251 269 278 277 282 294 307 320 323 313 308 314 305 213 238 256 267 270 248 256 270 271 265 263 260 275 275 266 268 268 269 277
200 220 237 181 202 224 213 235 249 248 258 253 258 264 268 270 266 272 273 281 283 268 297 317 309 237 248 278 291 286 267 265 276 280 277 269 255 263 271 262 258 268 268 272
245 255 248 236 242 253 240 240 255 258 262 256 255 259 260 258 257 261 265 265 278 283 293 304 310 291 266 289 298 252 252 267 267 266 273 274 268 262 262 257 257 263 267 271
247 266 288 261 235 243 247 254 262 269 260 249 248 257 253 254 255 249 263 274 248 241 263 282 297 297 299 307 297 265 259 258 257 259 263 267 270 265 265 255 252 259 257 259
234 224 215 248 240 231 232 246 252 262 275 270 243 253 257 253 249 241 254 259 258 263 271 281 287 289 296 292 259 245 262 261 256 256 258 263 271 286 282 279 281 278 276 275
240 249 233 260 280 254 237 251 261 254 259 277 279 253 249 260 265 246 253 251 251 258 269 276 282 286 292 288 274 252 253 259 257 258 259 264 270 277 292 299 293 290 289 289
250 248 262 252 256 266 249 264 286 295 291 284 293 305 275 277 281 262 260 263 267 270 273 275 280 284 291 287 273 265 264 268 268 255 254 258 263 270 276 285 295 297 300 301
249 225 235 257 277 290 283 244 275 286 294 308 311 284 261 255 265 274 281 288 287 279 279 280 281 286 294 281 271 268 268 266 262 259 259 260 265 270 273 277 281 291 301 305
256 249 241 247 255 262 256 240 247 265 267 264 269 266 260 256 269 284 290 278 256 269 277 276 276 284 285 274 273 270 266 277 279 269 264 265 265 267 271 274 278 282 286 293
211 242 240 250 254 255 243 234 234 246 248 244 247 253 265 280 290 285 282 272 262 266 270 271 276 285 276 263 254 258 263 272 285 286 271 267 266 265 266 268 271 275 278 284
220 229 230 231 236 241 249 243 237 238 239 238 239 237 239 244 260 274 283 291 293 289 280 276 277 274 266 258 245 249 253 259 261 266 269 269 268 264 265 267 270 276 285 292
229 233 236 235 231 221 235 244 244 242 243 225 218 233 243 251 258 269 278 279 278 283 285 281 291 293 276 267 268 247 250 256 263 265 266 274 282 277 271 270 273 276 280 285
230 226 224 239 241 225 240 249 245 244 238 213 217 237 255 260 259 261 260 257 251 256 269 277 276 271 264 261 269 245 241 245 253 260 261 260 265 271 272 273 274 275 276 276
225 220 218 229 245 245 239 238 231 240 240 211 216 235 249 262 258 246 250 272 275 264 262 277 278 268 260 261 266 244 239 245 251 256 259 262 265 268 269 270 273 273 273 274
215 209 221 224 233 259 262 240 226 228 233 235 237 240 247 259 260 255 243 250 268 278 279 266 266 268 275 273 251 239 241 246 253 259 261 261 262 264 266 268 270 272 272 272
217 211 219 226 230 245 272 256 235 226 232 236 238 239 241 247 244 246 267 261 259 271 276 262 272 282 285 273 247 239 244 248 253 257 261 262 262 262 264 266 268 270 272 273
214 218 220 218 198 216 255 262 251 241 239 246 244 240 237 249 257 246 252 274 281 284 275 275 284 287 291 270 248 244 248 252 254 256 260 265 267 267 267 267 269 270 269 270
210 210 203 203 221 238 246 251 256 254 252 256 257 251 241 234 242 259 261 261 273 287 284 283 288 292 291 260 252 253 253 253 254 254 252 260 264 267 269 270 271 272 272 271
212 219 226 228 230 238 238 234 243 252 253 265 270 263 255 251 251 257 259 261 263 280 282 276 279 285 276 266 263 261 259 270 280 275 265 264 265 265 266 268 269 270 270 269
225 230 238 257 253 240 232 230 238 248 247 248 264 265 257 257 258 258 260 264 268 269 270 271 268 263 262 263 267 269 269 268 265 265 264 263 264 266 267 266 268 270 271 271